Check out our new BloomSky Weather System.

Active alerts


No alerts


Thunder radar  blitzortung!


Rain radar more information rain snow radar


Visit our other weather sites:

Template documentation
and downloads

And another site



Weather Underground History page Text

Daily Summary for March 14, 2017 Units:  English    Metric   Both
« Previous Day
Next Day »
Daily Weekly Monthly Yearly Custom
  High: Low: Average:
Temperature: 71.2 °F 41.4 °F 55.4 °F
Dew Point: 48.6 °F 36.5 °F 41.9 °F
Humidity: 95 % 31 % 64 %
Wind Speed: 6.0 mph 0.0 mph 0.9 mph
Wind Gust: 7.0 mph - -
Wind:- - SW
Pressure: 30.31 in 30.16 in -
Precipitation: 0.00 in    
Historical Graphs
 
 
Tabular Data for March 14, 2017
Time Temperature Dew Point Pressure Wind Wind Speed Wind Gust Humidity Rainfall Rate (Hourly)
00:04 49.5 °F 47.5 °F 30.18 in Calm     93 % 0.00 in
00:09 49.3 °F 47.7 °F 30.18 in Calm     94 % 0.00 in
00:14 49.5 °F 47.8 °F 30.18 in Calm     94 % 0.00 in
00:19 49.3 °F 47.7 °F 30.18 in Calm   1.0 mph 94 % 0.00 in
00:24 49.1 °F 47.5 °F 30.18 in Calm   1.0 mph 94 % 0.00 in
00:29 48.9 °F 47.3 °F 30.18 in Calm   1.0 mph 94 % 0.00 in
00:34 49.1 °F 47.7 °F 30.18 in Calm     95 % 0.00 in
00:39 49.3 °F 47.8 °F 30.18 in Calm     95 % 0.00 in
00:44 49.5 °F 48.0 °F 30.18 in Calm     95 % 0.00 in
00:49 49.3 °F 47.7 °F 30.18 in Calm     94 % 0.00 in
00:54 49.3 °F 47.8 °F 30.18 in Calm     95 % 0.00 in
00:59 49.6 °F 48.2 °F 30.18 in Calm   2.0 mph 95 % 0.00 in
01:04 49.8 °F 48.2 °F 30.18 in NW 1.0 mph 3.0 mph 94 % 0.00 in
01:09 50.4 °F 48.4 °F 30.19 in NNW 1.0 mph 4.0 mph 93 % 0.00 in
01:14 50.5 °F 48.6 °F 30.19 in NW 1.0 mph 4.0 mph 93 % 0.00 in
01:19 50.5 °F 48.4 °F 30.19 in Calm   4.0 mph 92 % 0.00 in
01:24 50.4 °F 48.2 °F 30.19 in Calm   4.0 mph 92 % 0.00 in
01:29 50.2 °F 48.0 °F 30.19 in Calm   4.0 mph 92 % 0.00 in
01:34 50.0 °F 47.8 °F 30.19 in Calm   2.0 mph 92 % 0.00 in
01:39 49.8 °F 47.7 °F 30.19 in Calm   2.0 mph 92 % 0.00 in
01:44 49.6 °F 47.5 °F 30.19 in Calm   1.0 mph 92 % 0.00 in
01:49 49.5 °F 47.3 °F 30.20 in Calm   1.0 mph 92 % 0.00 in
01:54 49.3 °F 47.1 °F 30.20 in Calm   1.0 mph 92 % 0.00 in
01:59 49.5 °F 47.5 °F 30.20 in NW 1.0 mph 1.0 mph 93 % 0.00 in
02:04 49.6 °F 47.5 °F 30.20 in NNW 1.0 mph 3.0 mph 92 % 0.00 in
02:09 49.6 °F 47.5 °F 30.20 in NW 2.0 mph 3.0 mph 92 % 0.00 in
02:15 49.6 °F 46.8 °F 30.20 in NNE 1.0 mph 4.0 mph 90 % 0.00 in
02:20 49.5 °F 46.0 °F 30.20 in NNW 1.0 mph 4.0 mph 88 % 0.00 in
02:25 49.3 °F 45.3 °F 30.20 in NNW 1.0 mph 4.0 mph 86 % 0.00 in
02:30 49.3 °F 45.0 °F 30.21 in NNW 1.0 mph 4.0 mph 85 % 0.00 in
02:35 49.3 °F 44.6 °F 30.21 in NW 1.0 mph 3.0 mph 84 % 0.00 in
02:40 49.1 °F 44.2 °F 30.21 in NW 2.0 mph 4.0 mph 83 % 0.00 in
02:45 49.1 °F 43.9 °F 30.21 in NNW 3.0 mph 4.0 mph 82 % 0.00 in
02:50 48.9 °F 43.7 °F 30.22 in WNW 2.0 mph 4.0 mph 82 % 0.00 in
02:55 48.9 °F 43.3 °F 30.22 in NW 2.0 mph 4.0 mph 81 % 0.00 in
03:00 48.7 °F 43.2 °F 30.22 in NW 1.0 mph 4.0 mph 81 % 0.00 in
03:05 48.7 °F 42.8 °F 30.22 in Calm   3.0 mph 80 % 0.00 in
03:10 48.6 °F 42.6 °F 30.22 in Calm   3.0 mph 80 % 0.00 in
03:15 48.6 °F 42.6 °F 30.22 in Calm   3.0 mph 80 % 0.00 in
03:20 48.4 °F 42.3 °F 30.22 in Calm   3.0 mph 79 % 0.00 in
03:25 48.0 °F 42.1 °F 30.21 in Calm   3.0 mph 80 % 0.00 in
03:30 47.7 °F 41.7 °F 30.21 in NNW 1.0 mph 3.0 mph 80 % 0.00 in
03:35 47.5 °F 41.9 °F 30.21 in Calm   3.0 mph 81 % 0.00 in
03:40 47.3 °F 41.7 °F 30.22 in Calm   3.0 mph 81 % 0.00 in
03:45 47.1 °F 41.5 °F 30.22 in NW 1.0 mph 2.0 mph 81 % 0.00 in
03:50 46.9 °F 41.4 °F 30.22 in NW 1.0 mph 2.0 mph 81 % 0.00 in
03:55 46.8 °F 41.2 °F 30.22 in NW 1.0 mph 3.0 mph 81 % 0.00 in
04:00 46.8 °F 41.2 °F 30.22 in NNW 1.0 mph 3.0 mph 81 % 0.00 in
04:05 46.8 °F 41.2 °F 30.22 in NW 1.0 mph 3.0 mph 81 % 0.00 in
04:10 46.6 °F 41.0 °F 30.22 in Calm   3.0 mph 81 % 0.00 in
04:15 46.4 °F 40.8 °F 30.22 in Calm   3.0 mph 81 % 0.00 in
04:20 46.2 °F 40.6 °F 30.22 in Calm   3.0 mph 81 % 0.00 in
04:25 45.9 °F 40.6 °F 30.22 in Calm   3.0 mph 82 % 0.00 in
04:30 45.9 °F 40.6 °F 30.22 in Calm   2.0 mph 82 % 0.00 in
04:35 45.9 °F 40.6 °F 30.22 in Calm   2.0 mph 82 % 0.00 in
04:40 45.7 °F 40.5 °F 30.22 in Calm   2.0 mph 82 % 0.00 in
04:45 45.7 °F 40.1 °F 30.22 in Calm   2.0 mph 81 % 0.00 in
04:50 45.3 °F 39.9 °F 30.22 in Calm   2.0 mph 81 % 0.00 in
04:55 45.1 °F 39.9 °F 30.22 in Calm   2.0 mph 82 % 0.00 in
05:00 45.1 °F 39.9 °F 30.22 in Calm   2.0 mph 82 % 0.00 in
05:05 45.0 °F 39.7 °F 30.22 in Calm   2.0 mph 82 % 0.00 in
05:10 44.8 °F 39.9 °F 30.23 in Calm   2.0 mph 83 % 0.00 in
05:15 44.4 °F 39.6 °F 30.23 in Calm   3.0 mph 83 % 0.00 in
05:20 44.4 °F 39.2 °F 30.23 in NW 1.0 mph 3.0 mph 82 % 0.00 in
05:25 44.4 °F 39.2 °F 30.23 in Calm   3.0 mph 82 % 0.00 in
05:26 44.4 °F 39.2 °F 30.23 in Calm   3.0 mph 82 % 0.00 in
05:31 44.4 °F 39.0 °F 30.23 in Calm   2.0 mph 81 % 0.00 in
05:36 44.2 °F 38.5 °F 30.23 in Calm   2.0 mph 80 % 0.00 in
05:41 44.4 °F 38.3 °F 30.24 in NNW 1.0 mph 5.0 mph 79 % 0.00 in
05:46 44.6 °F 38.1 °F 30.24 in NNW 1.0 mph 5.0 mph 78 % 0.00 in
05:51 44.8 °F 37.9 °F 30.24 in Calm   5.0 mph 77 % 0.00 in
05:56 44.8 °F 37.8 °F 30.24 in Calm   4.0 mph 76 % 0.00 in
06:01 44.8 °F 37.8 °F 30.24 in Calm   3.0 mph 76 % 0.00 in
06:06 44.6 °F 37.6 °F 30.24 in Calm   3.0 mph 76 % 0.00 in
06:11 44.6 °F 37.6 °F 30.24 in NNE 2.0 mph 3.0 mph 76 % 0.00 in
06:16 44.6 °F 37.6 °F 30.24 in North 1.0 mph 3.0 mph 76 % 0.00 in
06:21 44.4 °F 37.4 °F 30.24 in Calm   4.0 mph 76 % 0.00 in
06:26 44.2 °F 37.2 °F 30.24 in NNW 1.0 mph 4.0 mph 76 % 0.00 in
06:32 44.1 °F 37.0 °F 30.25 in Calm   4.0 mph 76 % 0.00 in
06:37 43.9 °F 37.2 °F 30.25 in Calm   2.0 mph 77 % 0.00 in
06:42 43.9 °F 37.2 °F 30.24 in Calm   2.0 mph 77 % 0.00 in
06:47 43.7 °F 37.2 °F 30.25 in NNW 1.0 mph 1.0 mph 78 % 0.00 in
06:52 43.5 °F 37.0 °F 30.25 in Calm   2.0 mph 78 % 0.00 in
06:57 43.3 °F 36.9 °F 30.25 in NNW 1.0 mph 2.0 mph 78 % 0.00 in
07:02 43.3 °F 37.2 °F 30.26 in NNW 1.0 mph 2.0 mph 79 % 0.00 in
07:07 43.2 °F 37.4 °F 30.26 in Calm   2.0 mph 80 % 0.00 in
07:12 43.0 °F 37.2 °F 30.26 in Calm   2.0 mph 80 % 0.00 in
07:17 42.6 °F 37.2 °F 30.27 in Calm   2.0 mph 81 % 0.00 in
07:22 42.4 °F 37.0 °F 30.27 in Calm   2.0 mph 81 % 0.00 in
07:27 42.4 °F 37.4 °F 30.27 in Calm   2.0 mph 82 % 0.00 in
07:31 42.4 °F 37.0 °F 30.27 in Calm   2.0 mph 81 % 0.00 in
07:37 42.1 °F 36.7 °F 30.27 in Calm   2.0 mph 81 % 0.00 in
07:42 41.9 °F 36.9 °F 30.27 in Calm   1.0 mph 82 % 0.00 in
07:47 41.9 °F 37.0 °F 30.27 in Calm   1.0 mph 83 % 0.00 in
07:52 41.7 °F 36.9 °F 30.27 in Calm   1.0 mph 83 % 0.00 in
07:57 41.4 °F 36.5 °F 30.27 in Calm   1.0 mph 83 % 0.00 in
08:02 41.4 °F 36.9 °F 30.27 in Calm   1.0 mph 84 % 0.00 in
08:07 41.7 °F 37.2 °F 30.28 in Calm   1.0 mph 84 % 0.00 in
08:12 42.3 °F 37.8 °F 30.28 in Calm   1.0 mph 84 % 0.00 in
08:17 43.2 °F 38.3 °F 30.28 in Calm   1.0 mph 83 % 0.00 in
08:22 43.9 °F 38.7 °F 30.29 in NW 1.0 mph 1.0 mph 82 % 0.00 in
08:27 44.8 °F 39.4 °F 30.28 in Calm   2.0 mph 81 % 0.00 in
08:32 45.3 °F 39.2 °F 30.29 in Calm   2.0 mph 79 % 0.00 in
08:37 46.0 °F 39.6 °F 30.29 in Calm   2.0 mph 78 % 0.00 in
08:42 46.8 °F 39.6 °F 30.29 in Calm   2.0 mph 76 % 0.00 in
08:47 47.1 °F 38.8 °F 30.29 in NW 1.0 mph 5.0 mph 73 % 0.00 in
08:52 47.3 °F 38.7 °F 30.29 in North 1.0 mph 5.0 mph 72 % 0.00 in
08:57 48.0 °F 39.4 °F 30.29 in ENE 2.0 mph 5.0 mph 72 % 0.00 in
09:02 48.7 °F 38.7 °F 30.29 in ENE 2.0 mph 5.0 mph 68 % 0.00 in
09:07 48.7 °F 37.9 °F 30.29 in Calm   3.0 mph 66 % 0.00 in
09:12 48.9 °F 37.8 °F 30.29 in East 1.0 mph 4.0 mph 65 % 0.00 in
09:17 49.1 °F 37.8 °F 30.30 in NNW 3.0 mph 5.0 mph 65 % 0.00 in
09:22 49.1 °F 37.8 °F 30.29 in NE 2.0 mph 5.0 mph 65 % 0.00 in
09:27 49.3 °F 37.9 °F 30.30 in Calm   5.0 mph 65 % 0.00 in
09:32 50.2 °F 38.8 °F 30.30 in NW 1.0 mph 5.0 mph 65 % 0.00 in
09:37 50.0 °F 38.3 °F 30.30 in North 1.0 mph 5.0 mph 64 % 0.00 in
09:42 50.0 °F 38.7 °F 30.30 in NNW 2.0 mph 5.0 mph 65 % 0.00 in
09:47 50.0 °F 38.7 °F 30.30 in Calm   6.0 mph 65 % 0.00 in
09:52 50.5 °F 38.8 °F 30.30 in NNW 2.0 mph 6.0 mph 64 % 0.00 in
09:57 50.4 °F 38.7 °F 30.30 in ENE 2.0 mph 6.0 mph 64 % 0.00 in
10:02 50.4 °F 37.4 °F 30.30 in ENE 3.0 mph 6.0 mph 61 % 0.00 in
10:07 50.4 °F 38.3 °F 30.30 in Calm   6.0 mph 63 % 0.00 in
10:12 51.1 °F 39.4 °F 30.30 in ESE 4.0 mph 6.0 mph 64 % 0.00 in
10:17 51.3 °F 38.3 °F 30.30 in ENE 1.0 mph 6.0 mph 61 % 0.00 in
10:22 52.0 °F 39.7 °F 30.30 in NW 1.0 mph 5.0 mph 63 % 0.00 in
10:27 52.2 °F 38.7 °F 30.30 in NW 2.0 mph 5.0 mph 60 % 0.00 in
10:32 52.0 °F 38.5 °F 30.31 in North 5.0 mph 5.0 mph 60 % 0.00 in
10:37 52.0 °F 38.1 °F 30.31 in NE 2.0 mph 6.0 mph 59 % 0.00 in
10:42 52.0 °F 38.5 °F 30.31 in NW 2.0 mph 6.0 mph 60 % 0.00 in
10:47 52.2 °F 38.7 °F 30.31 in North 1.0 mph 6.0 mph 60 % 0.00 in
10:51 53.1 °F 40.8 °F 30.31 in NW 3.0 mph 5.0 mph 63 % 0.00 in
10:56 53.4 °F 39.0 °F 30.30 in Calm   4.0 mph 58 % 0.00 in
11:01 53.4 °F 38.5 °F 30.30 in Calm   6.0 mph 57 % 0.00 in
11:07 53.8 °F 40.3 °F 30.30 in WNW 3.0 mph 6.0 mph 60 % 0.00 in
11:12 54.0 °F 40.5 °F 30.30 in Calm   6.0 mph 60 % 0.00 in
11:17 54.0 °F 40.5 °F 30.30 in Calm   6.0 mph 60 % 0.00 in
11:22 54.5 °F 39.6 °F 30.30 in NNW 5.0 mph 7.0 mph 57 % 0.00 in
11:27 54.7 °F 39.4 °F 30.30 in Calm   7.0 mph 56 % 0.00 in
11:32 54.9 °F 40.8 °F 30.30 in NW 1.0 mph 7.0 mph 59 % 0.00 in
11:37 55.4 °F 39.9 °F 30.30 in North 4.0 mph 6.0 mph 56 % 0.00 in
11:42 55.9 °F 39.9 °F 30.29 in ENE 1.0 mph 6.0 mph 55 % 0.00 in
11:47 56.1 °F 40.1 °F 30.29 in WNW 1.0 mph 6.0 mph 55 % 0.00 in
11:52 56.8 °F 40.8 °F 30.29 in NW 5.0 mph 6.0 mph 55 % 0.00 in
11:57 57.0 °F 40.5 °F 30.28 in WNW 2.0 mph 5.0 mph 54 % 0.00 in
12:02 57.6 °F 41.0 °F 30.28 in Calm   5.0 mph 54 % 0.00 in
12:07 57.7 °F 40.3 °F 30.28 in Calm   5.0 mph 52 % 0.00 in
12:12 58.3 °F 40.3 °F 30.28 in WSW 1.0 mph 6.0 mph 51 % 0.00 in
12:17 58.3 °F 39.7 °F 30.28 in WNW 3.0 mph 6.0 mph 50 % 0.00 in
12:22 58.1 °F 40.1 °F 30.28 in Calm   6.0 mph 51 % 0.00 in
12:27 58.8 °F 41.7 °F 30.28 in NE 1.0 mph 6.0 mph 53 % 0.00 in
12:32 59.4 °F 42.3 °F 30.28 in North 3.0 mph 7.0 mph 53 % 0.00 in
12:37 59.7 °F 41.0 °F 30.28 in Calm   7.0 mph 50 % 0.00 in
12:42 60.1 °F 41.4 °F 30.28 in NNW 3.0 mph 7.0 mph 50 % 0.00 in
12:47 59.2 °F 40.6 °F 30.28 in NNE 1.0 mph 7.0 mph 50 % 0.00 in
12:52 59.4 °F 40.6 °F 30.28 in NNW 3.0 mph 7.0 mph 50 % 0.00 in
12:57 59.5 °F 40.3 °F 30.27 in NNW 3.0 mph 7.0 mph 49 % 0.00 in
13:02 59.5 °F 40.3 °F 30.27 in Calm   6.0 mph 49 % 0.00 in
13:07 60.1 °F 40.8 °F 30.27 in SSE 1.0 mph 6.0 mph 49 % 0.00 in
13:12 61.2 °F 43.0 °F 30.27 in Calm   4.0 mph 51 % 0.00 in
13:17 61.5 °F 41.2 °F 30.27 in Calm   4.0 mph 47 % 0.00 in
13:22 62.4 °F 41.9 °F 30.26 in WNW 3.0 mph 4.0 mph 47 % 0.00 in
13:27 62.6 °F 42.6 °F 30.26 in NNE 5.0 mph 6.0 mph 48 % 0.00 in
13:32 62.6 °F 42.6 °F 30.25 in West 4.0 mph 7.0 mph 48 % 0.00 in
13:37 62.8 °F 45.0 °F 30.25 in WSW 3.0 mph 7.0 mph 52 % 0.00 in
13:42 63.3 °F 41.0 °F 30.25 in West 2.0 mph 7.0 mph 44 % 0.00 in
13:47 63.1 °F 42.6 °F 30.25 in Calm   6.0 mph 47 % 0.00 in
13:52 63.5 °F 42.3 °F 30.25 in Calm   6.0 mph 46 % 0.00 in
13:57 63.9 °F 41.0 °F 30.25 in NNW 3.0 mph 6.0 mph 43 % 0.00 in
14:02 63.7 °F 41.9 °F 30.24 in NNW 1.0 mph 4.0 mph 45 % 0.00 in
14:07 63.9 °F 41.0 °F 30.24 in ENE 2.0 mph 4.0 mph 43 % 0.00 in
14:12 63.9 °F 42.1 °F 30.23 in Calm   5.0 mph 45 % 0.00 in
14:17 64.8 °F 44.6 °F 30.23 in SSW 4.0 mph 5.0 mph 48 % 0.00 in
14:22 65.3 °F 42.8 °F 30.22 in NNW 1.0 mph 5.0 mph 44 % 0.00 in
14:27 64.9 °F 43.2 °F 30.22 in NW 2.0 mph 6.0 mph 45 % 0.00 in
14:32 64.8 °F 42.3 °F 30.22 in Calm   6.0 mph 44 % 0.00 in
14:37 65.1 °F 42.6 °F 30.22 in SE 1.0 mph 6.0 mph 44 % 0.00 in
14:42 65.7 °F 44.2 °F 30.21 in ESE 2.0 mph 4.0 mph 46 % 0.00 in
14:47 65.8 °F 43.9 °F 30.21 in Calm   4.0 mph 45 % 0.00 in
14:52 66.7 °F 43.5 °F 30.20 in ENE 3.0 mph 4.0 mph 43 % 0.00 in
14:57 66.4 °F 42.6 °F 30.20 in Calm   3.0 mph 42 % 0.00 in
15:02 66.6 °F 44.6 °F 30.20 in SE 2.0 mph 5.0 mph 45 % 0.00 in
15:07 66.6 °F 43.3 °F 30.19 in ESE 3.0 mph 7.0 mph 43 % 0.00 in
15:12 66.2 °F 41.2 °F 30.19 in SSE 3.0 mph 7.0 mph 40 % 0.00 in
15:17 66.4 °F 41.9 °F 30.19 in SSW 4.0 mph 7.0 mph 41 % 0.00 in
15:22 67.3 °F 44.1 °F 30.18 in Calm   6.0 mph 43 % 0.00 in
15:27 67.8 °F 43.3 °F 30.18 in Calm   6.0 mph 41 % 0.00 in
15:32 68.2 °F 42.3 °F 30.18 in NNW 1.0 mph 6.0 mph 39 % 0.00 in
15:37 67.8 °F 39.9 °F 30.18 in WNW 1.0 mph 4.0 mph 36 % 0.00 in
15:42 68.2 °F 43.0 °F 30.18 in SW 1.0 mph 4.0 mph 40 % 0.00 in
15:47 68.7 °F 42.1 °F 30.18 in East 2.0 mph 4.0 mph 38 % 0.00 in
15:52 68.0 °F 42.1 °F 30.18 in SE 5.0 mph 5.0 mph 39 % 0.00 in
15:57 67.8 °F 39.9 °F 30.17 in SE 3.0 mph 6.0 mph 36 % 0.00 in
16:02 68.0 °F 40.8 °F 30.18 in South 1.0 mph 6.0 mph 37 % 0.00 in
16:07 68.4 °F 42.4 °F 30.17 in SE 2.0 mph 6.0 mph 39 % 0.00 in
16:12 68.5 °F 41.2 °F 30.17 in East 1.0 mph 6.0 mph 37 % 0.00 in
16:13 68.5 °F 41.2 °F 30.17 in Calm   6.0 mph 37 % 0.00 in
16:18 68.5 °F 43.3 °F 30.17 in WSW 6.0 mph 6.0 mph 40 % 0.00 in
16:23 68.7 °F 42.8 °F 30.17 in Calm   6.0 mph 39 % 0.00 in
16:28 68.9 °F 42.3 °F 30.17 in SW 1.0 mph 6.0 mph 38 % 0.00 in
16:33 68.9 °F 40.1 °F 30.17 in SSE 4.0 mph 6.0 mph 35 % 0.00 in
16:38 68.7 °F 40.6 °F 30.17 in SSE 2.0 mph 6.0 mph 36 % 0.00 in
16:43 68.9 °F 42.3 °F 30.17 in ESE 3.0 mph 6.0 mph 38 % 0.00 in
16:48 69.1 °F 41.7 °F 30.17 in Calm   5.0 mph 37 % 0.00 in
16:53 69.4 °F 41.4 °F 30.17 in Calm   4.0 mph 36 % 0.00 in
16:58 69.1 °F 41.0 °F 30.16 in WSW 1.0 mph 4.0 mph 36 % 0.00 in
17:03 69.4 °F 42.1 °F 30.16 in SSW 3.0 mph 4.0 mph 37 % 0.00 in
17:08 69.3 °F 41.2 °F 30.16 in SSW 1.0 mph 4.0 mph 36 % 0.00 in
17:13 69.6 °F 42.3 °F 30.16 in Calm   5.0 mph 37 % 0.00 in
17:18 70.2 °F 41.2 °F 30.16 in Calm   5.0 mph 35 % 0.00 in
17:23 70.0 °F 40.3 °F 30.16 in South 1.0 mph 5.0 mph 34 % 0.00 in
17:28 70.0 °F 40.3 °F 30.16 in South 2.0 mph 4.0 mph 34 % 0.00 in
17:33 69.6 °F 42.3 °F 30.16 in South 3.0 mph 6.0 mph 37 % 0.00 in
17:38 69.4 °F 41.4 °F 30.16 in SSE 1.0 mph 6.0 mph 36 % 0.00 in
17:43 69.4 °F 39.9 °F 30.16 in South 1.0 mph 6.0 mph 34 % 0.00 in
17:48 69.6 °F 40.8 °F 30.16 in Calm   6.0 mph 35 % 0.00 in
17:53 70.3 °F 39.9 °F 30.16 in SSW 1.0 mph 4.0 mph 33 % 0.00 in
17:58 70.5 °F 40.1 °F 30.16 in Calm   4.0 mph 33 % 0.00 in
18:03 70.9 °F 39.6 °F 30.17 in Calm   2.0 mph 32 % 0.00 in
18:08 71.2 °F 40.6 °F 30.17 in Calm   2.0 mph 33 % 0.00 in
18:13 71.1 °F 38.8 °F 30.17 in South 2.0 mph 2.0 mph 31 % 0.00 in
18:18 70.2 °F 40.5 °F 30.17 in SSW 2.0 mph 4.0 mph 34 % 0.00 in
18:23 69.6 °F 40.8 °F 30.17 in SW 3.0 mph 4.0 mph 35 % 0.00 in
18:28 69.1 °F 39.6 °F 30.17 in SE 2.0 mph 4.0 mph 34 % 0.00 in
18:33 68.7 °F 39.9 °F 30.16 in South 2.0 mph 4.0 mph 35 % 0.00 in
18:39 68.5 °F 39.0 °F 30.16 in SSW 4.0 mph 4.0 mph 34 % 0.00 in
18:44 68.4 °F 38.8 °F 30.16 in SE 2.0 mph 6.0 mph 34 % 0.00 in
18:48 68.4 °F 40.3 °F 30.16 in SW 2.0 mph 6.0 mph 36 % 0.00 in
18:54 68.4 °F 41.0 °F 30.16 in SSW 3.0 mph 6.0 mph 37 % 0.00 in
18:59 68.4 °F 41.0 °F 30.16 in South 2.0 mph 5.0 mph 37 % 0.00 in
19:04 68.2 °F 41.0 °F 30.16 in SSE 1.0 mph 5.0 mph 37 % 0.00 in
19:09 67.6 °F 40.5 °F 30.16 in South 1.0 mph 5.0 mph 37 % 0.00 in
19:14 66.9 °F 40.5 °F 30.16 in SE 2.0 mph 4.0 mph 38 % 0.00 in
19:19 66.4 °F 40.6 °F 30.16 in SSE 1.0 mph 4.0 mph 39 % 0.00 in
19:24 66.0 °F 41.0 °F 30.17 in Calm   2.0 mph 40 % 0.00 in
19:29 65.5 °F 39.9 °F 30.17 in Calm   2.0 mph 39 % 0.00 in
19:34 65.1 °F 40.3 °F 30.17 in Calm   2.0 mph 40 % 0.00 in
19:39 64.8 °F 41.2 °F 30.17 in Calm   1.0 mph 42 % 0.00 in
19:44 64.2 °F 41.2 °F 30.17 in Calm   1.0 mph 43 % 0.00 in
19:49 63.3 °F 40.5 °F 30.17 in Calm   1.0 mph 43 % 0.00 in
19:54 62.4 °F 41.4 °F 30.17 in Calm   1.0 mph 46 % 0.00 in
19:59 62.1 °F 41.5 °F 30.17 in Calm   1.0 mph 47 % 0.00 in
20:04 61.3 °F 41.5 °F 30.17 in Calm   1.0 mph 48 % 0.00 in
20:09 60.8 °F 42.1 °F 30.17 in Calm   1.0 mph 50 % 0.00 in
20:14 60.4 °F 42.8 °F 30.18 in Calm     52 % 0.00 in
20:19 60.4 °F 43.2 °F 30.18 in Calm     53 % 0.00 in
20:24 60.3 °F 44.1 °F 30.18 in Calm   1.0 mph 55 % 0.00 in
20:29 60.1 °F 44.4 °F 30.18 in Calm   1.0 mph 56 % 0.00 in
20:34 59.5 °F 43.9 °F 30.19 in Calm   1.0 mph 56 % 0.00 in
20:39 58.8 °F 43.7 °F 30.19 in Calm   1.0 mph 57 % 0.00 in
20:44 58.3 °F 44.1 °F 30.19 in Calm   1.0 mph 59 % 0.00 in
20:49 57.7 °F 44.4 °F 30.19 in Calm   1.0 mph 61 % 0.00 in
20:54 57.6 °F 44.2 °F 30.19 in Calm     61 % 0.00 in
20:59 57.4 °F 44.4 °F 30.19 in Calm     62 % 0.00 in
21:04 57.0 °F 44.6 °F 30.19 in Calm     63 % 0.00 in
21:09 56.7 °F 44.6 °F 30.19 in Calm   1.0 mph 64 % 0.00 in
21:14 56.7 °F 45.0 °F 30.19 in Calm   1.0 mph 65 % 0.00 in
21:19 56.7 °F 45.5 °F 30.20 in Calm   1.0 mph 66 % 0.00 in
21:24 56.8 °F 45.7 °F 30.20 in Calm   1.0 mph 66 % 0.00 in
21:29 57.2 °F 45.9 °F 30.20 in Calm   1.0 mph 66 % 0.00 in
21:34 57.4 °F 45.7 °F 30.19 in Calm   1.0 mph 65 % 0.00 in
21:39 57.7 °F 45.7 °F 30.19 in Calm   1.0 mph 64 % 0.00 in
21:44 57.7 °F 45.7 °F 30.20 in Calm   1.0 mph 64 % 0.00 in
21:49 57.7 °F 45.7 °F 30.20 in Calm   1.0 mph 64 % 0.00 in
21:54 57.4 °F 45.7 °F 30.20 in Calm   1.0 mph 65 % 0.00 in
21:59 57.2 °F 46.4 °F 30.21 in Calm   1.0 mph 67 % 0.00 in
22:04 56.8 °F 46.0 °F 30.21 in Calm   1.0 mph 67 % 0.00 in
22:09 56.7 °F 46.2 °F 30.21 in Calm   1.0 mph 68 % 0.00 in
22:14 56.3 °F 45.9 °F 30.21 in Calm   1.0 mph 68 % 0.00 in
22:20 56.5 °F 46.8 °F 30.21 in SE 1.0 mph 1.0 mph 70 % 0.00 in
22:25 56.8 °F 47.1 °F 30.22 in SE 2.0 mph 2.0 mph 70 % 0.00 in
22:30 57.0 °F 47.3 °F 30.22 in SE 1.0 mph 2.0 mph 70 % 0.00 in
22:35 57.0 °F 47.3 °F 30.22 in Calm   3.0 mph 70 % 0.00 in
22:40 56.8 °F 47.5 °F 30.22 in ESE 1.0 mph 3.0 mph 71 % 0.00 in
22:45 56.8 °F 47.5 °F 30.22 in Calm   3.0 mph 71 % 0.00 in
22:50 56.5 °F 47.1 °F 30.22 in Calm   1.0 mph 71 % 0.00 in
22:55 56.3 °F 47.5 °F 30.23 in Calm   1.0 mph 72 % 0.00 in
23:00 56.3 °F 47.8 °F 30.23 in Calm   1.0 mph 73 % 0.00 in
23:05 56.1 °F 48.0 °F 30.23 in Calm   1.0 mph 74 % 0.00 in
23:10 55.9 °F 47.8 °F 30.23 in Calm   1.0 mph 74 % 0.00 in
23:15 55.8 °F 48.0 °F 30.23 in Calm     75 % 0.00 in
23:20 55.2 °F 47.5 °F 30.23 in Calm     75 % 0.00 in
23:25 54.9 °F 47.5 °F 30.23 in Calm   1.0 mph 76 % 0.00 in
23:30 54.9 °F 47.8 °F 30.23 in Calm   1.0 mph 77 % 0.00 in
23:35 54.5 °F 47.8 °F 30.23 in Calm   1.0 mph 78 % 0.00 in
23:40 54.1 °F 47.8 °F 30.22 in Calm     79 % 0.00 in
23:45 53.8 °F 47.5 °F 30.22 in Calm     79 % 0.00 in
23:50 53.4 °F 47.5 °F 30.22 in Calm     80 % 0.00 in
23:55 53.2 °F 47.5 °F 30.22 in Calm     81 % 0.00 in
Spring, Texas: Villages of Bridgestone
Compliments of Weather Underground - 2.75 mb

Script developed by  Jim McMurry - jmcmurry@mwt.net Adapted for the template by  Wim van der Kuil - Leuven-Template.eu

You find our weather info also at:

UK Metoffice

WeatherCloud

Weather Underground

Mid-South Weather Network

AWEKAS

Citizen Weather Observer Program (CWOP)

HAMweather, WeatherForYou, PWS Weather

Equipment we use:

Weather-station
Davis Vantage Vue

Weather-program
Meteohub

Weather-server
Debian 7.9 x86 (Guest)

Provider
DreamHost

Davis Vantage Vue

Meteohub

Debian 7.9 x86 (Guest)

DreamHost